Weather History for Lakeville, MN

Change the Weather History Date:

Thursday, July 18, 2013

  Actual Average Record
Temperature  
Mean Temperature 81 °F -  
Max Temperature 89 °F 84 °F 97 °F (1964)
Min Temperature 73 °F 63 °F 50 °F (1984)
Cooling Degree Days 16    
Growing Degree Days 31 (Base 50)    
Moisture  
Dew Point 70 °F    
Average Humidity 68    
Maximum Humidity 89    
Minimum Humidity 52    
Precipitation  
Precipitation 0.00 in - - ()
Sea Level Pressure  
Sea Level Pressure 29.97 in    
Wind  
Wind Speed 3 mph (SW)    
Max Wind Speed 12 mph    
Max Gust Speed 20 mph    
Visibility 10 miles    
Events      
Averages and records for this station are not official NWS values.
T = Trace of Precipitation, MM = Missing Value Source: NWS Daily Summary

Daily Weather History Graph

Daily Weather History Graph

Search for Another Location

Airport:

Trip Planner

Search our weather history database for the weather conditions in past years. The results will help you decide how hot, cold, wet, or windy it might be!

Date:

Astronomy

Jul. 18, 2013 Rise Set
Actual Time 5:44 AM CDT 8:52 PM CDT
Civil Twilight 5:09 AM CDT 9:27 PM CDT
Nautical Twilight 4:24 AM CDT 10:13 PM CDT
Astronomical Twilight 3:29 AM CDT 11:07 PM CDT
Moon 4:49 PM CDT (7/18) 1:38 AM CDT (7/18)
Length of Visible Light 16h 18m
Length of Day
15h 07m
Waxing Gibbous, 77% of the Moon is Illuminated
Jul 18
Waxing Gibbous
Jul 22
Full
Jul 29
Last Quarter
Aug 6
New
Aug 14
First Quarter

Hourly Weather History & Observations

Time (CDT) Temp. Heat Index Dew Point Humidity Pressure Visibility Wind Dir Wind Speed Gust Speed Precip Events Conditions
12:10 AM 75.2 °F - 71.6 °F 89% 30.13 in 10.0 mi Calm Calm - N/A   Clear
12:30 AM 75.2 °F - 71.6 °F 89% 30.13 in 10.0 mi Calm Calm - N/A   Clear
12:50 AM 75.2 °F - 71.6 °F 89% 30.13 in 10.0 mi Calm Calm - N/A   Clear
1:10 AM 75.2 °F - 71.6 °F 89% 30.13 in 10.0 mi Calm Calm - N/A   Clear
1:30 AM 75.2 °F - 71.6 °F 89% 30.12 in 10.0 mi Calm Calm - N/A   Clear
1:50 AM 75.2 °F - 71.6 °F 89% 30.12 in 10.0 mi Calm Calm - N/A   Clear
2:10 AM 75.2 °F - 71.6 °F 89% 30.12 in 10.0 mi Calm Calm - N/A   Clear
2:30 AM 75.2 °F - 69.8 °F 83% 30.12 in 10.0 mi Calm Calm - N/A   Clear
2:50 AM 75.2 °F - 69.8 °F 83% 30.11 in 10.0 mi Calm Calm - N/A   Clear
3:10 AM 73.4 °F - 69.8 °F 88% 30.11 in 10.0 mi Calm Calm - N/A   Clear
3:30 AM 73.4 °F - 69.8 °F 88% 30.10 in 10.0 mi Calm Calm - N/A   Clear
3:50 AM 73.4 °F - 69.8 °F 88% 30.10 in 10.0 mi Calm Calm - N/A   Clear
4:10 AM 73.4 °F - 69.8 °F 88% 30.10 in 10.0 mi Calm Calm - N/A   Clear
4:30 AM 73.4 °F - 69.8 °F 88% 30.09 in 10.0 mi Calm Calm - N/A   Clear
4:50 AM 73.4 °F - 69.8 °F 88% 30.08 in 10.0 mi Calm Calm - N/A   Clear
5:10 AM 73.4 °F - 69.8 °F 88% 30.08 in 10.0 mi Calm Calm - N/A   Clear
5:30 AM 73.4 °F - 69.8 °F 88% 30.08 in 10.0 mi WSW 3.5 mph - N/A   Clear
5:50 AM 73.4 °F - 69.8 °F 88% 30.08 in 10.0 mi Calm Calm - N/A   Clear
6:10 AM 73.4 °F - 69.8 °F 88% 30.07 in 10.0 mi Calm Calm - N/A   Clear
6:30 AM 73.4 °F - 69.8 °F 88% 30.07 in 10.0 mi Calm Calm - N/A   Clear
6:50 AM 75.2 °F - 69.8 °F 83% 30.07 in 10.0 mi Calm Calm - N/A   Clear
7:10 AM 77.0 °F - 69.8 °F 78% 30.06 in 10.0 mi Calm Calm - N/A   Clear
7:30 AM 78.8 °F - 69.8 °F 74% 30.06 in 10.0 mi SW 3.5 mph - N/A   Clear
7:50 AM 78.8 °F - 69.8 °F 74% 30.05 in 10.0 mi Calm Calm - N/A   Clear
8:10 AM 80.6 °F 83.9 °F 69.8 °F 70% 30.05 in 10.0 mi SW 4.6 mph - N/A   Clear
8:30 AM 80.6 °F 83.9 °F 69.8 °F 70% 30.04 in 10.0 mi SW 5.8 mph - N/A   Clear
8:50 AM 82.4 °F 87.2 °F 71.6 °F 70% 30.04 in 10.0 mi SW 4.6 mph - N/A   Clear
9:10 AM 82.4 °F 87.2 °F 71.6 °F 70% 30.04 in 10.0 mi WSW 5.8 mph - N/A   Clear
9:30 AM 82.4 °F 86.3 °F 69.8 °F 66% 30.03 in 10.0 mi SW 5.8 mph - N/A   Clear
9:50 AM 84.2 °F 89.6 °F 71.6 °F 66% 30.03 in 10.0 mi WSW 3.5 mph - N/A   Clear
10:10 AM 84.2 °F 88.4 °F 69.8 °F 62% 30.02 in 10.0 mi SW 6.9 mph - N/A   Clear
10:30 AM 84.2 °F 88.4 °F 69.8 °F 62% 30.02 in 10.0 mi WSW 5.8 mph - N/A   Clear
10:50 AM 84.2 °F 88.4 °F 69.8 °F 62% 30.01 in 10.0 mi WSW 9.2 mph 18.4 mph N/A   Clear
11:10 AM 86.0 °F 90.4 °F 69.8 °F 58% 30.00 in 10.0 mi SW 10.4 mph 17.3 mph N/A   Clear
11:30 AM 87.8 °F 92.6 °F 69.8 °F 55% 30.00 in 10.0 mi WSW 10.4 mph 16.1 mph N/A   Clear
11:50 AM 87.8 °F 92.6 °F 69.8 °F 55% 30.00 in 10.0 mi WSW 9.2 mph - N/A   Clear
12:10 PM 87.8 °F 93.8 °F 71.6 °F 58% 29.99 in 10.0 mi WSW 6.9 mph 16.1 mph N/A   Clear
12:30 PM 87.8 °F 92.6 °F 69.8 °F 55% 29.98 in 10.0 mi SW 8.1 mph - N/A   Clear
12:50 PM 87.8 °F 92.6 °F 69.8 °F 55% 29.98 in 10.0 mi WSW 11.5 mph 18.4 mph N/A   Clear
1:10 PM 89.6 °F 96.2 °F 71.6 °F 55% 29.97 in 10.0 mi SW 6.9 mph - N/A   Clear
1:30 PM 89.6 °F 96.2 °F 71.6 °F 55% 29.96 in 10.0 mi WSW 8.1 mph 18.4 mph N/A   Clear
1:50 PM 89.6 °F 96.2 °F 71.6 °F 55% 29.95 in 10.0 mi WSW 6.9 mph - N/A   Clear
2:10 PM 89.6 °F 94.7 °F 69.8 °F 52% 29.95 in 10.0 mi WSW 6.9 mph - N/A   Clear
2:30 PM 89.6 °F 94.7 °F 69.8 °F 52% 29.94 in 10.0 mi WSW 11.5 mph 17.3 mph N/A   Clear
2:50 PM 89.6 °F 94.7 °F 69.8 °F 52% 29.93 in 10.0 mi WSW 9.2 mph - N/A   Clear
3:10 PM 89.6 °F 94.7 °F 69.8 °F 52% 29.92 in 10.0 mi WSW 9.2 mph 17.3 mph N/A   Clear
3:30 PM 89.6 °F 94.7 °F 69.8 °F 52% 29.91 in 10.0 mi SW 9.2 mph - N/A   Clear
3:50 PM 89.6 °F 94.7 °F 69.8 °F 52% 29.91 in 10.0 mi SW 8.1 mph 18.4 mph N/A   Clear
4:10 PM 89.6 °F 94.7 °F 69.8 °F 52% 29.89 in 10.0 mi SSW 8.1 mph - N/A   Clear
4:30 PM 89.6 °F 94.7 °F 69.8 °F 52% 29.89 in 10.0 mi SW 8.1 mph 19.6 mph N/A   Clear
4:50 PM 89.6 °F 94.7 °F 69.8 °F 52% 29.88 in 10.0 mi SW 6.9 mph - N/A   Clear
5:10 PM 89.6 °F 94.7 °F 69.8 °F 52% 29.87 in 10.0 mi SW 8.1 mph - N/A   Clear
5:30 PM 89.6 °F 94.7 °F 69.8 °F 52% 29.86 in 10.0 mi SSW 6.9 mph 16.1 mph N/A   Clear
5:50 PM 89.6 °F 94.7 °F 69.8 °F 52% 29.86 in 10.0 mi SSW 8.1 mph - N/A   Clear
6:10 PM 87.8 °F 92.6 °F 69.8 °F 55% 29.85 in 10.0 mi SSW 8.1 mph - N/A   Clear
6:30 PM 87.8 °F 92.6 °F 69.8 °F 55% 29.84 in 10.0 mi WSW 4.6 mph 17.3 mph N/A   Clear
6:50 PM 87.8 °F 92.6 °F 69.8 °F 55% 29.84 in 10.0 mi SW 5.8 mph - N/A   Clear
7:10 PM 87.8 °F 92.6 °F 69.8 °F 55% 29.83 in 10.0 mi SW 4.6 mph - N/A   Clear
7:30 PM 87.8 °F 92.6 °F 69.8 °F 55% 29.83 in 10.0 mi WSW 4.6 mph - N/A   Clear
7:50 PM 86.0 °F 90.4 °F 69.8 °F 58% 29.83 in 10.0 mi WSW 4.6 mph - N/A   Clear
8:10 PM 84.2 °F 88.4 °F 69.8 °F 62% 29.82 in 10.0 mi SW 3.5 mph - N/A   Clear
8:30 PM 84.2 °F 88.4 °F 69.8 °F 62% 29.82 in 10.0 mi SSW 4.6 mph - N/A   Clear
8:50 PM 82.4 °F 86.3 °F 69.8 °F 66% 29.81 in 10.0 mi SSW 3.5 mph - N/A   Clear
9:09 PM 82.4 °F 86.3 °F 69.8 °F 66% 29.82 in 10.0 mi SSW 3.5 mph - N/A   Clear
9:30 PM 82.4 °F 86.3 °F 69.8 °F 66% 29.81 in 10.0 mi South 3.5 mph - N/A   Clear
9:50 PM 82.4 °F 86.3 °F 69.8 °F 66% 29.81 in 10.0 mi Calm Calm - N/A   Clear
10:09 PM 82.4 °F 86.3 °F 69.8 °F 66% 29.82 in 10.0 mi SW 4.6 mph - N/A   Clear
10:30 PM 80.6 °F 83.2 °F 68.0 °F 65% 29.82 in 10.0 mi Calm Calm - N/A   Clear
10:50 PM 80.6 °F 83.2 °F 68.0 °F 65% 29.81 in 10.0 mi SSW 3.5 mph - N/A   Clear
11:10 PM 80.6 °F 83.2 °F 68.0 °F 65% 29.81 in 10.0 mi SW 5.8 mph - N/A   Clear
11:30 PM 80.6 °F 83.2 °F 68.0 °F 65% 29.80 in 10.0 mi SSW 4.6 mph - N/A   Clear
11:50 PM 80.6 °F 83.2 °F 68.0 °F 65% 29.80 in 10.0 mi WSW 3.5 mph - N/A   Clear